Regional Weather Roundup
Issued by NWS

Home | Current Version | Previous Version | Graphics & Text | Print | Product List | Glossary On
Versions: 1 2 3 4 5 6 7 8 9 10 11 12 13 14 15 16 17 18 19 20 21 22 23 24 25 26 27 28 29 30 31 32 33 34 35 36 37 38 39 40 41 42 43 44 45 46 47 48 49 50
000
ASUS45 KBOI 252210
RWRID

IDAHO REGIONAL WEATHER ROUNDUP
NATIONAL WEATHER SERVICE BOISE ID
400 PM MDT WED MAY 25 2016

NOTE: "FAIR" INDICATES FEW OR NO CLOUDS BELOW 12000 FEET
WITH NO SIGNIFICANT WEATHER AND/OR OBSTRUCTIONS TO VISIBILITY

IDZ012-014-252300-
SOUTHWEST IDAHO


CITY           SKY/WX    TMP DP  RH WIND       PRES   REMARKS
BOISE          PTSUNNY   71  40  32 N17       29.98S
CALDWELL       PTSUNNY   71  38  29 NW6       29.98S HAZE
MOUNTAIN HOME  PTSUNNY   71  41  33 NW10G22   29.97F
$$

IDZ016-017-252300-
SOUTHCENTRAL IDAHO


CITY           SKY/WX    TMP DP  RH WIND       PRES   REMARKS
BURLEY         MOSUNNY   62  42  47 SW10G17   30.00F
JEROME         CLOUDY    63  36  36 SW10      30.01F
TWIN FALLS     PTSUNNY   64  40  41 SW12      30.02F
$$

IDZ019>023-252300-
SOUTHEAST IDAHO


CITY           SKY/WX    TMP DP  RH WIND       PRES   REMARKS
IDAHO FALLS    TSTM      51  41  68 W17G26    30.03R
POCATELLO      PTSUNNY   63  37  38 W16       30.01S
REXBURG        CLOUDY    58  39  49 CALM      30.00F
$$

IDZ006-010-011-018-031-032-252300-
CENTRAL IDAHO MOUNTAINS


CITY           SKY/WX    TMP DP  RH WIND       PRES   REMARKS
MCCALL         PTSUNNY   61  34  36 N8        30.02F
HAILEY         LGT RAIN  54  43  66 W7        30.04S
STANLEY          N/A     57  30  35 VRB3      30.03F
SALMON         SUNNY     64  36  34 CALM      29.95F
CHALLIS        MOSUNNY   63  34  33 VRB5      29.98F
$$

IDZ002-004-006-007-026-252300-
NORTHERN IDAHO


CITY           SKY/WX    TMP DP  RH WIND       PRES   REMARKS
LEWISTON       PTSUNNY   72  46  39 W5        30.00F
LOWELL           N/A     62  54  74 CALM      30.03F
COEUR D`ALENE  MOSUNNY   70  50  49 SW16G22   29.97F
MULLAN PASS    PTSUNNY   51  41  68 NW8G18    30.07F
$$



USA.gov is the U.S. government's official web portal to all federal, state and local government web resources and services.